MAS81 RJAA-WBKK

Flight info

Callsign MAS81
Flight time N/A
Altitude 40000
Route SAMUS Y84 BUBDO A590 JOM M767 TOKON M646 VETAG VETAG1C
Aircraft A359/H-SDE2E3GHIJ3J4J5LM1ORWXY/LB1D1

Departure

Time N/A
Airport Narita International Airport (RJAA)

Arrival

Time 2026-05-05 15:28
Airport Kota Kinabalu International Airport (WBKK)
Time Latitude Longitude Altitude Speed Heading
2026-05-05 10:10 33.14155 139.80085 40251 ft 400 kts 222°
2026-05-05 10:10 33.11990 139.78044 40254 ft 394 kts 228°
2026-05-05 10:10 33.08482 139.73140 40255 ft 386 kts 239°
2026-05-05 10:11 33.05634 139.67757 40255 ft 386 kts 241°
2026-05-05 10:11 33.02851 139.62275 40249 ft 387 kts 241°
2026-05-05 10:12 33.00049 139.56795 40251 ft 387 kts 241°
2026-05-05 10:12 32.97230 139.51337 40243 ft 387 kts 241°
2026-05-05 10:13 32.94395 139.45875 40244 ft 387 kts 240°
2026-05-05 10:13 32.91558 139.40418 40247 ft 388 kts 240°
2026-05-05 10:14 32.88720 139.34965 40244 ft 388 kts 240°
2026-05-05 10:14 32.85878 139.29511 40241 ft 388 kts 240°
2026-05-05 10:15 32.83030 139.24052 40244 ft 388 kts 240°
2026-05-05 10:15 32.80179 139.18598 40246 ft 388 kts 240°
2026-05-05 10:16 32.77344 139.13181 40241 ft 389 kts 240°
2026-05-05 10:16 32.74486 139.07727 40236 ft 389 kts 240°
2026-05-05 10:17 32.71620 139.02267 40238 ft 389 kts 240°
2026-05-05 10:17 32.68748 138.96805 40237 ft 390 kts 240°
2026-05-05 10:18 32.65875 138.91347 40236 ft 390 kts 240°
2026-05-05 10:18 32.62995 138.85884 40232 ft 390 kts 240°
2026-05-05 10:19 32.60113 138.80426 40230 ft 391 kts 240°
2026-05-05 10:19 32.57221 138.74958 40228 ft 391 kts 240°
2026-05-05 10:20 32.54326 138.69490 40230 ft 391 kts 240°
2026-05-05 10:20 32.51448 138.64063 40231 ft 392 kts 240°
2026-05-05 10:21 32.48541 138.58590 40231 ft 392 kts 240°
2026-05-05 10:21 32.45632 138.53122 40229 ft 393 kts 240°
2026-05-05 10:22 32.42718 138.47651 40228 ft 393 kts 240°
2026-05-05 10:22 32.39798 138.42176 40229 ft 393 kts 240°
2026-05-05 10:23 32.36875 138.36706 40227 ft 394 kts 240°
2026-05-05 10:23 32.33945 138.31229 40227 ft 394 kts 240°
2026-05-05 10:24 32.31007 138.25745 40229 ft 394 kts 240°
2026-05-05 10:24 32.28073 138.20278 40226 ft 394 kts 240°
2026-05-05 10:25 32.25154 138.14844 40227 ft 394 kts 240°
2026-05-05 10:25 32.22210 138.09374 40225 ft 394 kts 240°
2026-05-05 10:26 32.19267 138.03911 40224 ft 395 kts 240°
2026-05-05 10:26 32.16315 137.98441 40227 ft 395 kts 240°
2026-05-05 10:27 32.13356 137.92965 40224 ft 396 kts 240°
2026-05-05 10:27 32.10892 137.88411 40223 ft 396 kts 240°
2026-05-05 10:28 32.07926 137.82938 40222 ft 396 kts 240°
2026-05-05 10:28 32.04955 137.77460 40221 ft 397 kts 240°
2026-05-05 10:29 32.01970 137.71967 40223 ft 398 kts 240°
2026-05-05 10:29 31.98983 137.66478 40223 ft 398 kts 240°
2026-05-05 10:30 31.95987 137.60979 40224 ft 399 kts 240°
2026-05-05 10:30 31.92988 137.55487 40225 ft 399 kts 240°
2026-05-05 10:31 31.89982 137.49986 40225 ft 399 kts 240°
2026-05-05 10:31 31.86986 137.44514 40224 ft 400 kts 240°
2026-05-05 10:32 31.83974 137.39018 40225 ft 400 kts 240°
2026-05-05 10:32 31.80960 137.33527 40226 ft 400 kts 240°
2026-05-05 10:33 31.77941 137.28037 40222 ft 400 kts 240°
2026-05-05 10:33 31.74921 137.22550 40221 ft 400 kts 240°
2026-05-05 10:34 31.71899 137.17069 40219 ft 400 kts 240°
2026-05-05 10:34 31.68871 137.11585 40223 ft 400 kts 240°
2026-05-05 10:35 31.65842 137.06105 40222 ft 400 kts 240°
2026-05-05 10:35 31.62829 137.00664 40220 ft 400 kts 240°
2026-05-05 10:36 31.59794 136.95192 40221 ft 400 kts 240°
2026-05-05 10:36 31.56757 136.89723 40218 ft 400 kts 240°
2026-05-05 10:37 31.53721 136.84262 40217 ft 400 kts 240°
2026-05-05 10:37 31.50687 136.78811 40216 ft 400 kts 240°
2026-05-05 10:38 31.47642 136.73350 40217 ft 400 kts 240°
2026-05-05 10:38 31.44576 136.67908 40213 ft 401 kts 238°
2026-05-05 10:39 31.40838 136.63006 40215 ft 408 kts 229°
2026-05-05 10:39 31.36596 136.58563 40211 ft 410 kts 227°
2026-05-05 10:40 31.32281 136.54200 40214 ft 410 kts 227°
2026-05-05 10:40 31.27956 136.49829 40211 ft 410 kts 227°
2026-05-05 10:41 31.23672 136.45481 40207 ft 410 kts 227°
2026-05-05 10:41 31.19353 136.41091 40199 ft 411 kts 227°
2026-05-05 10:42 31.12883 136.34522 40213 ft 411 kts 227°
2026-05-05 10:43 31.08563 136.30145 40205 ft 411 kts 227°
2026-05-05 10:43 31.04241 136.25772 40207 ft 412 kts 227°
2026-05-05 10:44 30.99913 136.21398 40199 ft 412 kts 227°
2026-05-05 10:44 30.95580 136.17025 40199 ft 412 kts 227°
2026-05-05 10:45 30.91240 136.12649 40204 ft 412 kts 227°
2026-05-05 10:45 30.86898 136.08278 40207 ft 413 kts 227°
2026-05-05 10:46 30.82555 136.03911 40202 ft 413 kts 227°
2026-05-05 10:46 30.78204 135.99540 40200 ft 413 kts 227°
2026-05-05 10:47 30.73846 135.95168 40202 ft 414 kts 227°
2026-05-05 10:47 30.69510 135.90824 40203 ft 414 kts 227°
2026-05-05 10:48 30.65140 135.86452 40210 ft 415 kts 227°
2026-05-05 10:48 30.60765 135.82080 40206 ft 415 kts 227°
2026-05-05 10:49 30.56385 135.77707 40212 ft 415 kts 227°
2026-05-05 10:49 30.52001 135.73337 40211 ft 415 kts 227°
2026-05-05 10:50 30.47612 135.68967 40209 ft 415 kts 227°
2026-05-05 10:50 30.43229 135.64608 40209 ft 416 kts 227°
2026-05-05 10:51 30.38835 135.60244 40210 ft 416 kts 227°
2026-05-05 10:51 30.34466 135.55909 40215 ft 416 kts 226°
2026-05-05 10:52 30.30064 135.51548 40212 ft 417 kts 226°
2026-05-05 10:52 30.25657 135.47187 40214 ft 417 kts 226°
2026-05-05 10:53 30.21249 135.42830 40212 ft 417 kts 226°
2026-05-05 10:53 30.16840 135.38477 40213 ft 417 kts 226°
2026-05-05 10:54 30.12422 135.34122 40211 ft 417 kts 226°
2026-05-05 10:54 30.08031 135.29730 40210 ft 417 kts 227°
2026-05-05 10:55 30.03703 135.25328 40206 ft 417 kts 227°
2026-05-05 10:55 29.99340 135.20903 40208 ft 417 kts 227°
2026-05-05 10:56 29.94969 135.16490 40208 ft 418 kts 227°
2026-05-05 10:56 29.90587 135.12080 40205 ft 418 kts 227°
2026-05-05 10:57 29.86204 135.07673 40207 ft 418 kts 227°
2026-05-05 10:57 29.81819 135.03270 40203 ft 418 kts 227°
2026-05-05 10:58 29.77456 134.98893 40198 ft 418 kts 227°
2026-05-05 10:58 29.73064 134.94493 40194 ft 418 kts 227°
2026-05-05 10:59 29.68678 134.90104 40190 ft 418 kts 227°
2026-05-05 10:59 29.64286 134.85713 40190 ft 419 kts 226°
2026-05-05 11:00 29.59885 134.81320 40189 ft 419 kts 226°
2026-05-05 11:00 29.55484 134.76932 40184 ft 418 kts 226°
2026-05-05 11:01 29.51083 134.72549 40195 ft 419 kts 226°
2026-05-05 11:01 29.46682 134.68171 40178 ft 419 kts 226°
2026-05-05 11:02 29.42302 134.63819 40189 ft 419 kts 226°
2026-05-05 11:02 29.37885 134.59436 40188 ft 419 kts 226°
2026-05-05 11:03 29.33472 134.55062 40184 ft 419 kts 226°
2026-05-05 11:03 29.29049 134.50683 40182 ft 420 kts 226°
2026-05-05 11:04 29.24629 134.46313 40182 ft 420 kts 226°
2026-05-05 11:04 29.20199 134.41938 40178 ft 420 kts 226°
2026-05-05 11:05 29.15797 134.37594 40176 ft 420 kts 226°
2026-05-05 11:05 29.11367 134.33229 40177 ft 421 kts 226°
2026-05-05 11:06 29.06926 134.28859 40171 ft 421 kts 226°
2026-05-05 11:06 29.02483 134.24491 40169 ft 421 kts 226°
2026-05-05 11:07 28.98037 134.20127 40167 ft 422 kts 226°
2026-05-05 11:07 28.93584 134.15760 40166 ft 422 kts 226°
2026-05-05 11:08 28.89130 134.11397 40168 ft 422 kts 226°
2026-05-05 11:08 28.84669 134.07032 40166 ft 422 kts 226°
2026-05-05 11:09 28.80236 134.02700 40163 ft 422 kts 226°
2026-05-05 11:09 28.75778 133.98348 40163 ft 422 kts 226°
2026-05-05 11:10 28.71311 133.93992 40159 ft 422 kts 226°
2026-05-05 11:10 28.66845 133.89644 40158 ft 422 kts 226°
2026-05-05 11:11 28.62375 133.85297 40151 ft 422 kts 225°
2026-05-05 11:11 28.57903 133.80952 40160 ft 423 kts 225°
2026-05-05 11:12 28.53431 133.76616 40161 ft 423 kts 225°
2026-05-05 11:12 28.48984 133.72305 40160 ft 423 kts 225°
2026-05-05 11:13 28.44501 133.67966 40161 ft 423 kts 225°
2026-05-05 11:13 28.40019 133.63633 40162 ft 423 kts 225°
2026-05-05 11:14 28.35531 133.59299 40156 ft 424 kts 225°
2026-05-05 11:14 28.31039 133.54966 40164 ft 424 kts 225°
2026-05-05 11:15 28.26542 133.50634 40161 ft 424 kts 225°
2026-05-05 11:15 28.22033 133.46295 40144 ft 425 kts 225°
2026-05-05 11:16 28.18288 133.42695 40158 ft 425 kts 225°
2026-05-05 11:16 28.13772 133.38358 40156 ft 425 kts 225°
2026-05-05 11:17 28.09259 133.34030 40148 ft 425 kts 225°
2026-05-05 11:17 28.04735 133.29696 40148 ft 426 kts 225°
2026-05-05 11:18 28.00212 133.25367 40147 ft 426 kts 225°
2026-05-05 11:18 27.95681 133.21036 40146 ft 426 kts 225°
2026-05-05 11:19 27.91147 133.16707 40142 ft 427 kts 225°
2026-05-05 11:19 27.86600 133.12376 40143 ft 427 kts 225°
2026-05-05 11:20 27.82041 133.08061 40141 ft 428 kts 225°
2026-05-05 11:20 27.77478 133.03747 40138 ft 428 kts 225°
2026-05-05 11:21 27.72944 132.99465 40138 ft 428 kts 224°
2026-05-05 11:21 27.68374 132.95154 40137 ft 428 kts 224°
2026-05-05 11:22 27.63799 132.90842 40131 ft 428 kts 224°
2026-05-05 11:22 27.59220 132.86532 40132 ft 428 kts 224°
2026-05-05 11:23 27.54646 132.82231 40131 ft 429 kts 224°
2026-05-05 11:23 27.50067 132.77930 40131 ft 429 kts 224°
2026-05-05 11:24 27.45483 132.73629 40129 ft 429 kts 224°
2026-05-05 11:24 27.40897 132.69331 40129 ft 429 kts 224°
2026-05-05 11:25 27.36312 132.65039 40126 ft 429 kts 224°
2026-05-05 11:25 27.31724 132.60749 40126 ft 429 kts 224°
2026-05-05 11:26 27.27135 132.56463 40126 ft 429 kts 224°
2026-05-05 11:26 27.22541 132.52177 40120 ft 429 kts 224°
2026-05-05 11:27 27.17974 132.47921 40123 ft 429 kts 224°
2026-05-05 11:27 27.13380 132.43644 40121 ft 429 kts 224°
2026-05-05 11:28 27.08778 132.39364 40118 ft 429 kts 224°
2026-05-05 11:28 27.04174 132.35089 40119 ft 430 kts 224°
2026-05-05 11:29 26.99561 132.30808 40114 ft 430 kts 224°
2026-05-05 11:29 26.94949 132.26533 40113 ft 431 kts 224°
2026-05-05 11:30 26.90325 132.22253 40117 ft 431 kts 224°
2026-05-05 11:30 26.85701 132.17976 40112 ft 431 kts 224°
2026-05-05 11:31 26.81078 132.13706 40110 ft 431 kts 224°
2026-05-05 11:31 26.76447 132.09431 40107 ft 431 kts 224°
2026-05-05 11:32 26.71809 132.05157 40108 ft 432 kts 224°
2026-05-05 11:32 26.67166 132.00881 40110 ft 432 kts 224°
2026-05-05 11:33 26.62523 131.96611 40109 ft 433 kts 224°
2026-05-05 11:33 26.57897 131.92361 40108 ft 433 kts 224°
2026-05-05 11:34 26.53237 131.88084 40103 ft 433 kts 224°
2026-05-05 11:34 26.48579 131.83814 40104 ft 433 kts 224°
2026-05-05 11:35 26.43917 131.79545 40102 ft 433 kts 224°
2026-05-05 11:35 26.39253 131.75279 40107 ft 433 kts 224°
2026-05-05 11:36 26.34591 131.71018 40109 ft 433 kts 224°
2026-05-05 11:36 26.29928 131.66761 40104 ft 433 kts 223°
2026-05-05 11:37 26.25261 131.62505 40107 ft 433 kts 223°
2026-05-05 11:37 26.20619 131.58277 40106 ft 433 kts 223°
2026-05-05 11:38 26.15948 131.54027 40088 ft 433 kts 223°
2026-05-05 11:38 26.11275 131.49780 40075 ft 433 kts 223°
2026-05-05 11:39 26.06600 131.45536 40056 ft 433 kts 223°
2026-05-05 11:39 26.01926 131.41296 40054 ft 433 kts 223°
2026-05-05 11:40 25.97251 131.37060 40049 ft 433 kts 223°
2026-05-05 11:40 25.92575 131.32828 40045 ft 434 kts 223°
2026-05-05 11:41 25.87896 131.28598 40075 ft 434 kts 223°
2026-05-05 11:41 25.83174 131.24407 40075 ft 435 kts 220°
2026-05-05 11:42 25.78184 131.20563 40076 ft 437 kts 218°
2026-05-05 11:42 25.73165 131.16825 40078 ft 437 kts 219°
2026-05-05 11:43 25.68143 131.13013 40082 ft 437 kts 219°
2026-05-05 11:43 25.63136 131.09161 40083 ft 438 kts 219°
2026-05-05 11:44 25.58136 131.05304 40091 ft 438 kts 219°
2026-05-05 11:44 25.53128 131.01446 40084 ft 438 kts 219°
2026-05-05 11:45 25.48114 130.97591 40085 ft 439 kts 219°
2026-05-05 11:45 25.43127 130.93762 40101 ft 439 kts 219°
2026-05-05 11:46 25.38106 130.89910 40080 ft 439 kts 219°
2026-05-05 11:46 25.33082 130.86061 40075 ft 439 kts 219°
2026-05-05 11:47 25.28050 130.82209 40076 ft 439 kts 219°
2026-05-05 11:47 25.23021 130.78363 40079 ft 439 kts 219°
2026-05-05 11:48 25.15479 130.72603 40078 ft 440 kts 219°
2026-05-05 11:48 25.10446 130.68764 40071 ft 440 kts 219°
2026-05-05 11:49 25.05408 130.64925 40072 ft 440 kts 219°
2026-05-05 11:49 25.00403 130.61115 40065 ft 440 kts 219°
2026-05-05 11:50 24.95334 130.57260 40073 ft 440 kts 219°
2026-05-05 11:50 24.90292 130.53430 40069 ft 440 kts 219°
2026-05-05 11:51 24.85280 130.49626 40063 ft 440 kts 219°
2026-05-05 11:51 24.80230 130.45797 40060 ft 441 kts 219°
2026-05-05 11:52 24.75179 130.41972 40063 ft 441 kts 219°
2026-05-05 11:52 24.70123 130.38146 40059 ft 441 kts 219°
2026-05-05 11:53 24.65050 130.34312 40062 ft 442 kts 219°
2026-05-05 11:53 24.59983 130.30486 40058 ft 442 kts 218°
2026-05-05 11:54 24.54910 130.26659 40058 ft 443 kts 218°
2026-05-05 11:54 24.49828 130.22830 40054 ft 443 kts 218°
2026-05-05 11:55 24.44744 130.19002 40057 ft 443 kts 218°
2026-05-05 11:55 24.39658 130.15177 40056 ft 443 kts 218°
2026-05-05 11:56 24.34595 130.11374 40053 ft 443 kts 218°
2026-05-05 11:56 24.29552 130.07483 40049 ft 443 kts 219°
2026-05-05 11:57 24.24536 130.03541 40046 ft 443 kts 219°
2026-05-05 11:57 24.19511 129.99610 40045 ft 444 kts 219°
2026-05-05 11:58 24.14508 129.95719 40047 ft 444 kts 219°
2026-05-05 11:58 24.09463 129.91807 40046 ft 444 kts 219°
2026-05-05 11:59 24.04420 129.87900 40045 ft 444 kts 219°
2026-05-05 11:59 23.99370 129.83990 40044 ft 444 kts 219°
2026-05-05 12:00 23.94354 129.80110 40040 ft 444 kts 219°
2026-05-05 12:00 23.89273 129.76183 40045 ft 444 kts 219°
2026-05-05 12:01 23.84254 129.72307 40044 ft 445 kts 219°
2026-05-05 12:01 23.79196 129.68406 40037 ft 445 kts 219°
2026-05-05 12:02 23.74125 129.64499 40032 ft 446 kts 219°
2026-05-05 12:02 23.69049 129.60592 40038 ft 446 kts 219°
2026-05-05 12:03 23.63972 129.56687 40037 ft 447 kts 219°
2026-05-05 12:03 23.59745 129.53439 40036 ft 447 kts 219°
2026-05-05 12:04 23.54651 129.49529 40035 ft 448 kts 219°
2026-05-05 12:04 23.49555 129.45621 40038 ft 448 kts 219°
2026-05-05 12:05 23.44458 129.41715 40026 ft 448 kts 219°
2026-05-05 12:05 23.39359 129.37811 40034 ft 448 kts 219°
2026-05-05 12:06 23.34254 129.33907 40029 ft 448 kts 218°
2026-05-05 12:06 23.29180 129.30031 40028 ft 449 kts 218°
2026-05-05 12:07 23.24070 129.26131 40030 ft 449 kts 218°
2026-05-05 12:07 23.18958 129.22232 40027 ft 449 kts 218°
2026-05-05 12:08 23.13838 129.18332 40026 ft 449 kts 218°
2026-05-05 12:08 23.08715 129.14433 40021 ft 449 kts 218°
2026-05-05 12:09 23.03626 129.10564 40022 ft 449 kts 218°
2026-05-05 12:09 22.98514 129.06658 40020 ft 449 kts 219°
2026-05-05 12:10 22.93582 129.02511 40021 ft 448 kts 221°
2026-05-05 12:10 22.88707 128.98283 40022 ft 449 kts 221°
2026-05-05 12:11 22.83796 128.94083 40016 ft 449 kts 221°
2026-05-05 12:11 22.78857 128.89911 40016 ft 449 kts 221°
2026-05-05 12:12 22.73915 128.85753 40016 ft 450 kts 221°
2026-05-05 12:12 22.68998 128.81619 40017 ft 450 kts 221°
2026-05-05 12:13 22.64043 128.77454 40015 ft 450 kts 220°
2026-05-05 12:13 22.59086 128.73291 40014 ft 451 kts 220°
2026-05-05 12:14 22.54123 128.69126 40014 ft 451 kts 220°
2026-05-05 12:14 22.49193 128.64994 40012 ft 451 kts 220°
2026-05-05 12:15 22.44227 128.60835 40007 ft 451 kts 220°
2026-05-05 12:15 22.39259 128.56679 40008 ft 452 kts 220°
2026-05-05 12:16 22.34288 128.52523 40011 ft 452 kts 220°
2026-05-05 12:16 22.29311 128.48366 40007 ft 452 kts 220°
2026-05-05 12:17 22.24329 128.44209 40009 ft 452 kts 220°
2026-05-05 12:17 22.19352 128.40060 40003 ft 452 kts 220°
2026-05-05 12:18 22.14369 128.35910 40004 ft 452 kts 220°
2026-05-05 12:18 22.09416 128.31788 40003 ft 452 kts 220°
2026-05-05 12:19 22.04432 128.27644 40001 ft 453 kts 220°
2026-05-05 12:19 21.99437 128.23495 40001 ft 453 kts 220°
2026-05-05 12:20 21.94443 128.19351 40001 ft 453 kts 220°
2026-05-05 12:20 21.89451 128.15213 40001 ft 453 kts 220°
2026-05-05 12:21 21.84456 128.11075 40000 ft 453 kts 220°
2026-05-05 12:21 21.79493 128.06969 40000 ft 453 kts 220°
2026-05-05 12:22 21.74495 128.02836 40001 ft 453 kts 220°
2026-05-05 12:22 21.69497 127.98706 40000 ft 453 kts 220°
2026-05-05 12:23 21.64496 127.94579 39998 ft 453 kts 220°
2026-05-05 12:23 21.59497 127.90457 39997 ft 453 kts 220°
2026-05-05 12:24 21.54499 127.86340 39995 ft 453 kts 220°
2026-05-05 12:24 21.49485 127.82212 39995 ft 453 kts 220°
2026-05-05 12:25 21.44481 127.78097 39996 ft 453 kts 220°
2026-05-05 12:25 21.39472 127.73981 39997 ft 453 kts 220°
2026-05-05 12:26 21.34500 127.69900 39996 ft 453 kts 220°
2026-05-05 12:26 21.29486 127.65787 39992 ft 453 kts 220°
2026-05-05 12:27 21.24469 127.61675 39997 ft 454 kts 220°
2026-05-05 12:27 21.19454 127.57569 39996 ft 454 kts 220°
2026-05-05 12:28 21.14435 127.53463 39995 ft 454 kts 220°
2026-05-05 12:28 21.09413 127.49359 39994 ft 454 kts 220°
2026-05-05 12:29 21.04392 127.45258 39993 ft 454 kts 220°
2026-05-05 12:29 20.99401 127.41188 39991 ft 454 kts 220°
2026-05-05 12:30 20.94429 127.37028 39993 ft 453 kts 221°
2026-05-05 12:30 20.89504 127.32811 39990 ft 453 kts 221°
2026-05-05 12:31 20.84562 127.28599 39987 ft 453 kts 221°
2026-05-05 12:31 20.79615 127.24407 39992 ft 454 kts 221°
2026-05-05 12:32 20.74660 127.20222 39990 ft 454 kts 221°
2026-05-05 12:32 20.69739 127.16068 39989 ft 454 kts 221°
2026-05-05 12:33 20.64783 127.11888 39995 ft 454 kts 221°
2026-05-05 12:33 20.59825 127.07710 39995 ft 454 kts 221°
2026-05-05 12:34 20.54869 127.03536 39989 ft 454 kts 221°
2026-05-05 12:34 20.49909 126.99363 39986 ft 454 kts 221°
2026-05-05 12:35 20.44984 126.95222 39987 ft 454 kts 221°
2026-05-05 12:35 20.40022 126.91054 39989 ft 454 kts 221°
2026-05-05 12:36 20.35060 126.86890 39991 ft 454 kts 221°
2026-05-05 12:36 20.30091 126.82723 39990 ft 454 kts 221°
2026-05-05 12:37 20.25154 126.78587 39988 ft 453 kts 221°
2026-05-05 12:37 20.20194 126.74434 39988 ft 454 kts 221°
2026-05-05 12:38 20.15230 126.70282 39986 ft 454 kts 221°
2026-05-05 12:38 20.10268 126.66135 39985 ft 454 kts 221°
2026-05-05 12:39 20.05303 126.61989 39986 ft 454 kts 221°
2026-05-05 12:39 20.00337 126.57846 39985 ft 454 kts 221°
2026-05-05 12:40 19.95368 126.53703 39984 ft 454 kts 221°
2026-05-05 12:40 19.90393 126.49559 39986 ft 454 kts 221°
2026-05-05 12:41 19.85424 126.45423 39983 ft 454 kts 221°
2026-05-05 12:41 19.80488 126.41318 39982 ft 454 kts 221°
2026-05-05 12:42 19.75511 126.37183 39982 ft 454 kts 221°
2026-05-05 12:42 19.70539 126.33054 39982 ft 454 kts 221°
2026-05-05 12:43 19.65561 126.28925 39982 ft 454 kts 221°
2026-05-05 12:43 19.60577 126.24793 39979 ft 454 kts 220°
2026-05-05 12:44 19.55595 126.20667 39978 ft 454 kts 220°
2026-05-05 12:44 19.50644 126.16570 39977 ft 454 kts 220°
2026-05-05 12:45 19.45662 126.12449 39980 ft 454 kts 220°
2026-05-05 12:45 19.40680 126.08333 39976 ft 454 kts 220°
2026-05-05 12:46 19.35690 126.04213 39979 ft 454 kts 220°
2026-05-05 12:46 19.30702 126.00099 39982 ft 454 kts 220°
2026-05-05 12:47 19.25716 125.95989 39982 ft 454 kts 220°
2026-05-05 12:47 19.20720 125.91874 39970 ft 455 kts 220°
2026-05-05 12:48 19.15728 125.87765 39967 ft 455 kts 220°
2026-05-05 12:48 19.10735 125.83659 39981 ft 455 kts 220°
2026-05-05 12:49 19.05739 125.79553 39975 ft 455 kts 220°
2026-05-05 12:49 19.00774 125.75476 39973 ft 455 kts 220°
2026-05-05 12:50 18.95772 125.71372 39974 ft 455 kts 220°
2026-05-05 12:50 18.90777 125.67277 39980 ft 455 kts 220°
2026-05-05 12:51 18.85771 125.63176 39972 ft 455 kts 220°
2026-05-05 12:51 18.80770 125.59083 39972 ft 455 kts 220°
2026-05-05 12:52 18.75756 125.54982 39980 ft 455 kts 220°
2026-05-05 12:52 18.70781 125.50916 39969 ft 455 kts 220°
2026-05-05 12:53 18.65773 125.46827 39974 ft 455 kts 220°
2026-05-05 12:53 18.61605 125.43425 39964 ft 455 kts 220°
2026-05-05 12:54 18.54089 125.37297 39974 ft 455 kts 220°
2026-05-05 12:55 18.49076 125.33213 39978 ft 455 kts 220°
2026-05-05 12:55 18.44055 125.29127 39972 ft 456 kts 220°
2026-05-05 12:56 18.39039 125.25047 39967 ft 456 kts 220°
2026-05-05 12:56 18.34021 125.20969 39970 ft 456 kts 220°
2026-05-05 12:57 18.28992 125.16885 39970 ft 456 kts 220°
2026-05-05 12:57 18.23965 125.12806 39966 ft 456 kts 220°
2026-05-05 12:58 18.18970 125.08755 39965 ft 456 kts 220°
2026-05-05 12:58 18.13911 125.04656 39969 ft 456 kts 220°
2026-05-05 12:59 18.08910 125.00607 39968 ft 456 kts 220°
2026-05-05 12:59 18.03876 124.96534 39961 ft 456 kts 220°
2026-05-05 13:00 17.96328 124.90433 39964 ft 456 kts 220°
2026-05-05 13:01 17.86252 124.82299 39973 ft 456 kts 220°
2026-05-05 13:01 17.81252 124.78266 39966 ft 456 kts 220°
2026-05-05 13:02 17.76181 124.74180 39965 ft 457 kts 220°
2026-05-05 13:02 17.71168 124.70144 39969 ft 457 kts 220°
2026-05-05 13:03 17.66128 124.66088 39966 ft 457 kts 220°
2026-05-05 13:03 17.61081 124.62030 39967 ft 457 kts 220°
2026-05-05 13:04 17.56038 124.57979 39962 ft 457 kts 220°
2026-05-05 13:04 17.50988 124.53924 39959 ft 457 kts 220°
2026-05-05 13:05 17.45941 124.49875 39964 ft 457 kts 220°
2026-05-05 13:05 17.40891 124.45827 39962 ft 457 kts 219°
2026-05-05 13:06 17.35834 124.41777 39967 ft 457 kts 219°
2026-05-05 13:06 17.30810 124.37758 39964 ft 457 kts 219°
2026-05-05 13:07 17.25759 124.33714 39962 ft 457 kts 219°
2026-05-05 13:07 17.20694 124.29664 39962 ft 458 kts 219°
2026-05-05 13:08 17.15634 124.25622 39962 ft 457 kts 219°
2026-05-05 13:08 17.10571 124.21581 39961 ft 458 kts 219°
2026-05-05 13:09 17.05502 124.17538 39963 ft 458 kts 219°
2026-05-05 13:09 17.00476 124.13531 39962 ft 458 kts 219°
2026-05-05 13:10 16.95412 124.09498 39961 ft 458 kts 219°
2026-05-05 13:10 16.90343 124.05463 39960 ft 458 kts 219°
2026-05-05 13:11 16.85269 124.01426 39962 ft 458 kts 219°
2026-05-05 13:11 16.80198 123.97396 39961 ft 458 kts 219°
2026-05-05 13:12 16.75127 123.93367 39960 ft 458 kts 219°
2026-05-05 13:12 16.70055 123.89341 39962 ft 458 kts 219°
2026-05-05 13:13 16.64974 123.85311 39957 ft 458 kts 219°
2026-05-05 13:13 16.59926 123.81309 39957 ft 459 kts 219°
2026-05-05 13:14 16.54844 123.77283 39959 ft 459 kts 219°
2026-05-05 13:14 16.49762 123.73260 39957 ft 459 kts 219°
2026-05-05 13:15 16.44672 123.69233 39958 ft 459 kts 219°
2026-05-05 13:15 16.39587 123.65213 39957 ft 459 kts 219°
2026-05-05 13:16 16.34496 123.61191 39958 ft 459 kts 219°
2026-05-05 13:16 16.29406 123.57173 39955 ft 459 kts 219°
2026-05-05 13:17 16.24341 123.53177 39956 ft 459 kts 219°
2026-05-05 13:17 16.19238 123.49153 39954 ft 459 kts 219°
2026-05-05 13:18 16.14132 123.45130 39957 ft 459 kts 219°
2026-05-05 13:18 16.09033 123.41115 39958 ft 460 kts 219°
2026-05-05 13:19 16.03967 123.37128 39955 ft 460 kts 219°
2026-05-05 13:19 15.98861 123.33114 39955 ft 460 kts 219°
2026-05-05 13:20 15.93754 123.29100 39954 ft 460 kts 219°
2026-05-05 13:20 15.88647 123.25089 39953 ft 460 kts 219°
2026-05-05 13:21 15.83527 123.21071 39955 ft 461 kts 219°
2026-05-05 13:21 15.78409 123.17057 39953 ft 461 kts 219°
2026-05-05 13:22 15.73318 123.13067 39951 ft 461 kts 218°
2026-05-05 13:22 15.68195 123.09054 39954 ft 461 kts 218°
2026-05-05 13:23 15.63066 123.05039 39954 ft 461 kts 218°
2026-05-05 13:23 15.57942 123.01033 39956 ft 461 kts 218°
2026-05-05 13:24 15.52807 122.97017 39958 ft 462 kts 218°
2026-05-05 13:24 15.47714 122.93037 39953 ft 462 kts 218°
2026-05-05 13:25 15.42579 122.89028 39953 ft 462 kts 218°
2026-05-05 13:25 15.37440 122.85017 39948 ft 462 kts 218°
2026-05-05 13:26 15.32301 122.81010 39945 ft 462 kts 218°
2026-05-05 13:26 15.27159 122.77004 39947 ft 462 kts 218°
2026-05-05 13:27 15.22012 122.72995 39957 ft 463 kts 218°
2026-05-05 13:27 15.16893 122.69011 39958 ft 463 kts 218°
2026-05-05 13:28 15.11740 122.65003 39958 ft 463 kts 218°
2026-05-05 13:28 15.06585 122.60996 39946 ft 463 kts 218°
2026-05-05 13:29 15.01434 122.56994 39952 ft 463 kts 218°
2026-05-05 13:29 14.96271 122.52986 39952 ft 464 kts 218°
2026-05-05 13:30 14.91107 122.48979 39951 ft 464 kts 218°
2026-05-05 13:30 14.85944 122.44975 39952 ft 464 kts 218°
2026-05-05 13:31 14.80772 122.40968 39948 ft 465 kts 218°
2026-05-05 13:31 14.75630 122.36985 39949 ft 465 kts 218°
2026-05-05 13:32 14.70451 122.32977 39948 ft 465 kts 218°
2026-05-05 13:32 14.65448 122.28753 39947 ft 464 kts 223°
2026-05-05 13:33 14.60640 122.24284 39944 ft 465 kts 223°
2026-05-05 13:33 14.55815 122.19840 39946 ft 465 kts 223°
2026-05-05 13:34 14.50942 122.15436 39947 ft 465 kts 222°
2026-05-05 13:34 14.46049 122.11051 39944 ft 466 kts 222°
2026-05-05 13:35 14.41192 122.06703 39946 ft 466 kts 222°
2026-05-05 13:35 14.36295 122.02317 39944 ft 466 kts 222°
2026-05-05 13:36 14.31398 121.97931 39943 ft 466 kts 222°
2026-05-05 13:36 14.26492 121.93542 39946 ft 466 kts 222°
2026-05-05 13:37 14.21591 121.89160 39944 ft 467 kts 222°
2026-05-05 13:37 14.16686 121.84776 39943 ft 467 kts 222°
2026-05-05 13:38 14.11775 121.80390 39946 ft 467 kts 222°
2026-05-05 13:38 14.06896 121.76034 39950 ft 467 kts 222°
2026-05-05 13:39 14.01978 121.71646 39945 ft 467 kts 222°
2026-05-05 13:39 13.97066 121.67266 39947 ft 467 kts 222°
2026-05-05 13:40 13.92148 121.62884 39948 ft 468 kts 222°
2026-05-05 13:40 13.87222 121.58496 39946 ft 468 kts 222°
2026-05-05 13:41 13.82297 121.54113 39944 ft 468 kts 222°
2026-05-05 13:41 13.77372 121.49732 39944 ft 468 kts 222°
2026-05-05 13:42 13.72478 121.45381 39943 ft 468 kts 222°
2026-05-05 13:42 13.67548 121.41000 39938 ft 468 kts 222°
2026-05-05 13:43 13.62618 121.36622 39944 ft 468 kts 222°
2026-05-05 13:43 13.57685 121.32244 39945 ft 468 kts 222°
2026-05-05 13:44 13.52750 121.27869 39943 ft 468 kts 221°
2026-05-05 13:44 13.47816 121.23500 39950 ft 468 kts 222°
2026-05-05 13:45 13.43717 121.19865 39953 ft 468 kts 222°
2026-05-05 13:45 13.38778 121.15487 39959 ft 469 kts 222°
2026-05-05 13:46 13.33840 121.11116 39957 ft 469 kts 222°
2026-05-05 13:46 13.28893 121.06740 39959 ft 469 kts 222°
2026-05-05 13:47 13.23942 121.02366 39965 ft 469 kts 221°
2026-05-05 13:47 13.18998 120.98001 39967 ft 469 kts 222°
2026-05-05 13:48 13.14061 120.93636 39967 ft 468 kts 222°
2026-05-05 13:48 13.09118 120.89272 39960 ft 469 kts 222°
2026-05-05 13:49 13.04203 120.84936 39953 ft 469 kts 222°
2026-05-05 13:49 12.99255 120.80574 39943 ft 469 kts 222°
2026-05-05 13:50 12.94297 120.76205 39932 ft 469 kts 221°
2026-05-05 13:50 12.89347 120.71846 39927 ft 469 kts 221°
2026-05-05 13:51 12.84392 120.67494 39922 ft 469 kts 221°
2026-05-05 13:51 12.79447 120.63139 39917 ft 469 kts 221°
2026-05-05 13:52 12.74499 120.58785 39915 ft 469 kts 221°
2026-05-05 13:52 12.69575 120.54457 39915 ft 469 kts 221°
2026-05-05 13:53 12.64619 120.50103 39914 ft 469 kts 221°
2026-05-05 13:53 12.59660 120.45751 39911 ft 469 kts 221°
2026-05-05 13:54 12.54703 120.41402 39908 ft 469 kts 221°
2026-05-05 13:54 12.49742 120.37052 39910 ft 469 kts 221°
2026-05-05 13:55 12.44781 120.32704 39909 ft 470 kts 221°
2026-05-05 13:55 12.39809 120.28349 39911 ft 469 kts 221°
2026-05-05 13:56 12.34875 120.24029 39912 ft 470 kts 221°
2026-05-05 13:56 12.29908 120.19682 39907 ft 470 kts 221°
2026-05-05 13:57 12.24937 120.15335 39915 ft 470 kts 221°
2026-05-05 13:57 12.19964 120.10988 39916 ft 470 kts 221°
2026-05-05 13:58 12.14994 120.06645 39913 ft 470 kts 221°
2026-05-05 13:58 12.10014 120.02296 39914 ft 470 kts 221°
2026-05-05 13:59 12.02551 119.95783 39917 ft 470 kts 221°
2026-05-05 14:00 11.95119 119.89302 39913 ft 470 kts 221°
2026-05-05 14:00 11.90135 119.84959 39917 ft 470 kts 221°
2026-05-05 14:01 11.85158 119.80623 39922 ft 470 kts 221°
2026-05-05 14:01 11.80179 119.76288 39917 ft 470 kts 221°
2026-05-05 14:02 11.75189 119.71947 39919 ft 471 kts 221°
2026-05-05 14:02 11.70089 119.67811 39917 ft 472 kts 213°
2026-05-05 14:03 11.64253 119.64727 39918 ft 473 kts 206°
2026-05-05 14:03 11.58262 119.61937 39915 ft 473 kts 205°
2026-05-05 14:04 11.52249 119.59188 39916 ft 474 kts 205°
2026-05-05 14:04 11.46231 119.56417 39916 ft 474 kts 205°
2026-05-05 14:05 11.40265 119.53655 39920 ft 474 kts 205°
2026-05-05 14:05 11.34260 119.50871 39919 ft 474 kts 205°
2026-05-05 14:06 11.28254 119.48088 39917 ft 474 kts 205°
2026-05-05 14:06 11.22243 119.45304 39915 ft 474 kts 205°
2026-05-05 14:07 11.16230 119.42521 39916 ft 474 kts 205°
2026-05-05 14:07 11.10216 119.39740 39919 ft 475 kts 205°
2026-05-05 14:08 11.04203 119.36960 39916 ft 475 kts 205°
2026-05-05 14:08 10.98189 119.34181 39918 ft 475 kts 205°
2026-05-05 14:09 10.92206 119.31417 39916 ft 475 kts 205°
2026-05-05 14:09 10.86184 119.28637 39917 ft 475 kts 205°
2026-05-05 14:10 10.80160 119.25857 39912 ft 475 kts 205°
2026-05-05 14:10 10.74139 119.23079 39914 ft 475 kts 205°
2026-05-05 14:11 10.68116 119.20302 39916 ft 475 kts 205°
2026-05-05 14:11 10.62097 119.17528 39918 ft 475 kts 205°
2026-05-05 14:12 10.56072 119.14752 39917 ft 475 kts 205°
2026-05-05 14:12 10.50052 119.11980 39915 ft 475 kts 205°
2026-05-05 14:13 10.44027 119.09207 39920 ft 475 kts 205°
2026-05-05 14:13 10.38040 119.06452 39920 ft 475 kts 205°
2026-05-05 14:14 10.32014 119.03688 39923 ft 475 kts 205°
2026-05-05 14:14 10.25989 119.00919 39923 ft 475 kts 205°
2026-05-05 14:15 10.19965 118.98145 39925 ft 475 kts 205°
2026-05-05 14:15 10.13936 118.95373 39925 ft 475 kts 205°
2026-05-05 14:16 10.07911 118.92606 39925 ft 475 kts 205°
2026-05-05 14:16 10.01886 118.89841 39924 ft 475 kts 205°
2026-05-05 14:17 9.95864 118.87079 39927 ft 475 kts 205°
2026-05-05 14:17 9.89846 118.84318 39904 ft 475 kts 205°
2026-05-05 14:18 9.83859 118.81573 39902 ft 475 kts 205°
2026-05-05 14:18 9.77841 118.78816 39900 ft 475 kts 205°
2026-05-05 14:19 9.72061 118.75600 39908 ft 474 kts 214°
2026-05-05 14:19 9.66659 118.71776 39910 ft 474 kts 216°
2026-05-05 14:20 9.61313 118.67862 39913 ft 474 kts 216°
2026-05-05 14:20 9.55968 118.63946 39917 ft 474 kts 216°
2026-05-05 14:21 9.50609 118.60040 39922 ft 474 kts 216°
2026-05-05 14:21 9.45237 118.56136 39928 ft 475 kts 216°
2026-05-05 14:22 9.39898 118.52258 39928 ft 475 kts 216°
2026-05-05 14:22 9.34521 118.48353 39928 ft 476 kts 216°
2026-05-05 14:23 9.29141 118.44447 39931 ft 476 kts 216°
2026-05-05 14:23 9.23746 118.40532 39929 ft 476 kts 216°
2026-05-05 14:24 9.18349 118.36617 39926 ft 477 kts 216°
2026-05-05 14:24 9.12958 118.32707 39925 ft 477 kts 216°
2026-05-05 14:25 9.07598 118.28822 39923 ft 477 kts 216°
2026-05-05 14:25 9.02186 118.24908 39924 ft 477 kts 216°
2026-05-05 14:26 8.96775 118.21014 39921 ft 477 kts 216°
2026-05-05 14:26 8.91357 118.17116 39922 ft 478 kts 216°
2026-05-05 14:27 8.85941 118.13217 39921 ft 478 kts 216°
2026-05-05 14:27 8.80524 118.09317 39921 ft 478 kts 216°
2026-05-05 14:28 8.75101 118.05415 39921 ft 478 kts 216°
2026-05-05 14:28 8.69716 118.01541 39923 ft 478 kts 216°
2026-05-05 14:29 8.64283 117.97635 39920 ft 479 kts 216°
2026-05-05 14:29 8.58847 117.93728 39918 ft 479 kts 216°
2026-05-05 14:30 8.53408 117.89820 39920 ft 480 kts 216°
2026-05-05 14:30 8.47971 117.85915 39918 ft 480 kts 216°
2026-05-05 14:31 8.42523 117.82003 39919 ft 480 kts 216°
2026-05-05 14:31 8.37077 117.78094 39911 ft 480 kts 216°
2026-05-05 14:32 8.31625 117.74182 39913 ft 481 kts 216°
2026-05-05 14:32 8.26204 117.70294 39912 ft 481 kts 216°
2026-05-05 14:33 8.20752 117.66385 39913 ft 481 kts 216°
2026-05-05 14:33 8.15289 117.62469 39912 ft 481 kts 216°
2026-05-05 14:34 8.10709 117.59187 39912 ft 482 kts 216°
2026-05-05 14:34 8.05239 117.55268 39911 ft 483 kts 215°
2026-05-05 14:35 7.99791 117.51367 39910 ft 484 kts 215°
2026-05-05 14:35 7.94299 117.47436 39906 ft 484 kts 215°
2026-05-05 14:36 7.88793 117.43496 39910 ft 485 kts 215°
2026-05-05 14:36 7.83282 117.39554 39914 ft 486 kts 215°
2026-05-05 14:37 7.77767 117.35610 39913 ft 486 kts 215°
2026-05-05 14:37 7.72250 117.31666 39911 ft 485 kts 215°
2026-05-05 14:38 7.66747 117.27739 39910 ft 485 kts 214°
2026-05-05 14:38 7.61252 117.23859 39910 ft 485 kts 214°
2026-05-05 14:39 7.55731 117.19961 39907 ft 485 kts 214°
2026-05-05 14:39 7.50206 117.16058 39909 ft 485 kts 214°
2026-05-05 14:40 7.44682 117.12157 39908 ft 485 kts 214°
2026-05-05 14:40 7.39154 117.08254 39907 ft 485 kts 214°
2026-05-05 14:41 7.33633 117.04357 39907 ft 484 kts 214°
2026-05-05 14:41 7.28119 117.00466 39908 ft 484 kts 214°
2026-05-05 14:42 7.22602 116.96574 39909 ft 483 kts 214°
2026-05-05 14:42 7.17128 116.92714 39902 ft 483 kts 214°
2026-05-05 14:43 7.11628 116.88836 39891 ft 483 kts 214°
2026-05-05 14:43 7.06121 116.84955 39889 ft 483 kts 214°
2026-05-05 14:44 7.00609 116.81072 39883 ft 483 kts 214°
2026-05-05 14:44 6.95106 116.77196 39887 ft 483 kts 215°
2026-05-05 14:45 6.89602 116.73320 39890 ft 483 kts 215°
2026-05-05 14:45 6.84101 116.69447 39892 ft 483 kts 215°
2026-05-05 14:46 6.78585 116.65565 39896 ft 482 kts 215°
2026-05-05 14:46 6.73088 116.61697 39902 ft 482 kts 214°
2026-05-05 14:47 6.67592 116.57832 39910 ft 482 kts 214°
2026-05-05 14:47 6.62124 116.53987 39909 ft 482 kts 214°
2026-05-05 14:48 6.56567 116.50308 39912 ft 470 kts 206°
2026-05-05 14:48 6.53577 116.49072 39917 ft 460 kts 195°
2026-05-05 14:48 6.50457 116.48444 39915 ft 456 kts 184°
2026-05-05 14:49 6.44188 116.48998 39902 ft 454 kts 163°
2026-05-05 14:49 6.38532 116.51733 39897 ft 453 kts 143°
2026-05-05 14:50 6.34185 116.56269 39895 ft 452 kts 123°
2026-05-05 14:50 6.32685 116.59042 39904 ft 452 kts 112°
2026-05-05 14:50 6.31712 116.62041 39901 ft 452 kts 102°
2026-05-05 14:51 6.31292 116.65165 39907 ft 452 kts 91°
2026-05-05 14:51 6.31431 116.68314 39910 ft 451 kts 81°
2026-05-05 14:51 6.33324 116.74296 39910 ft 451 kts 62°
2026-05-05 14:52 6.35024 116.76942 39914 ft 451 kts 51°
2026-05-05 14:52 6.37180 116.79226 39906 ft 451 kts 40°
2026-05-05 14:52 6.42296 116.82892 39904 ft 451 kts 34°
2026-05-05 14:53 6.47492 116.86454 39904 ft 452 kts 34°
2026-05-05 14:53 6.53139 116.89172 39910 ft 452 kts 15°
2026-05-05 14:54 6.56238 116.89700 39905 ft 453 kts
2026-05-05 14:54 6.59345 116.89635 39900 ft 453 kts 353°
2026-05-05 14:54 6.65392 116.87852 39895 ft 455 kts 333°
2026-05-05 14:55 6.70468 116.84082 39892 ft 456 kts 313°
2026-05-05 14:55 6.72417 116.81569 39891 ft 456 kts 302°
2026-05-05 14:55 6.73867 116.78775 39894 ft 457 kts 292°
2026-05-05 14:56 6.75176 116.72560 39896 ft 457 kts 271°
2026-05-05 14:56 6.74195 116.66263 39896 ft 458 kts 250°
2026-05-05 14:57 6.72878 116.63354 39897 ft 458 kts 239°
2026-05-05 14:57 6.71054 116.60726 39909 ft 458 kts 229°
2026-05-05 14:57 6.68787 116.58476 39907 ft 458 kts 218°
2026-05-05 14:57 6.66209 116.56592 39907 ft 458 kts 213°
2026-05-05 14:58 6.63562 116.54816 39799 ft 455 kts 213°
2026-05-05 14:58 6.60913 116.53043 39103 ft 459 kts 213°
2026-05-05 14:58 6.58220 116.51262 38205 ft 468 kts 211°
2026-05-05 14:58 6.55324 116.49728 37244 ft 474 kts 202°
2026-05-05 14:59 6.52224 116.48688 36396 ft 479 kts 193°
2026-05-05 14:59 6.48928 116.48149 35582 ft 482 kts 184°
2026-05-05 14:59 6.45581 116.48132 34939 ft 481 kts 175°
2026-05-05 14:59 6.42287 116.48651 34412 ft 478 kts 165°
2026-05-05 15:00 6.39161 116.49738 33908 ft 474 kts 155°
2026-05-05 15:00 6.37208 116.50787 33527 ft 472 kts 148°
2026-05-05 15:00 6.33878 116.53527 32769 ft 468 kts 133°
2026-05-05 15:00 6.31886 116.56116 32214 ft 466 kts 122°
2026-05-05 15:01 6.30449 116.59013 31695 ft 463 kts 111°
2026-05-05 15:01 6.29602 116.62130 31205 ft 460 kts 100°
2026-05-05 15:01 6.29380 116.65322 30715 ft 458 kts 88°
2026-05-05 15:01 6.29778 116.68481 30246 ft 455 kts 77°
2026-05-05 15:02 6.30782 116.71472 29980 ft 452 kts 65°
2026-05-05 15:02 6.32373 116.74202 29907 ft 453 kts 56°
2026-05-05 15:02 6.36503 116.79006 29911 ft 455 kts 42°
2026-05-05 15:03 6.41670 116.82703 29908 ft 456 kts 33°
2026-05-05 15:03 6.46937 116.86201 29906 ft 456 kts 34°
2026-05-05 15:04 6.52595 116.89067 29901 ft 458 kts 17°
2026-05-05 15:04 6.55713 116.89709 29901 ft 459 kts
2026-05-05 15:04 6.58908 116.89758 29895 ft 459 kts 355°
2026-05-05 15:05 6.65186 116.88599 29896 ft 460 kts 342°
2026-05-05 15:05 6.68139 116.87351 29896 ft 461 kts 332°
2026-05-05 15:05 6.70809 116.85592 29893 ft 461 kts 321°
2026-05-05 15:06 6.73056 116.83292 29891 ft 460 kts 307°
2026-05-05 15:06 6.74678 116.80526 29893 ft 460 kts 292°
2026-05-05 15:06 6.75568 116.77444 29891 ft 459 kts 278°
2026-05-05 15:06 6.75682 116.74255 29738 ft 453 kts 264°
2026-05-05 15:07 6.75130 116.71150 29104 ft 450 kts 255°
2026-05-05 15:07 6.73881 116.68276 28449 ft 449 kts 236°
2026-05-05 15:07 6.71950 116.65890 27932 ft 444 kts 225°
2026-05-05 15:07 6.69802 116.63670 27411 ft 441 kts 225°
2026-05-05 15:08 6.67679 116.61450 26902 ft 439 kts 226°
2026-05-05 15:08 6.65598 116.59220 26398 ft 436 kts 226°
2026-05-05 15:08 6.63547 116.56988 25916 ft 433 kts 226°
2026-05-05 15:08 6.61520 116.54763 25417 ft 430 kts 227°
2026-05-05 15:09 6.59507 116.52542 24943 ft 428 kts 227°
2026-05-05 15:09 6.57520 116.50334 24461 ft 425 kts 227°
2026-05-05 15:09 6.55626 116.48064 23988 ft 422 kts 230°
2026-05-05 15:09 6.53774 116.45777 23518 ft 420 kts 230°
2026-05-05 15:10 6.51932 116.43512 22973 ft 417 kts 230°
2026-05-05 15:10 6.50092 116.41264 22441 ft 414 kts 230°
2026-05-05 15:10 6.48269 116.39042 21923 ft 411 kts 229°
2026-05-05 15:10 6.46597 116.36729 21407 ft 408 kts 236°
2026-05-05 15:11 6.45095 116.34323 20914 ft 405 kts 237°
2026-05-05 15:11 6.43622 116.31920 20416 ft 402 kts 237°
2026-05-05 15:11 6.42161 116.29538 19926 ft 399 kts 237°
2026-05-05 15:11 6.40723 116.27201 19444 ft 396 kts 237°
2026-05-05 15:12 6.39279 116.24858 18983 ft 393 kts 237°
2026-05-05 15:12 6.37845 116.22533 18510 ft 390 kts 237°
2026-05-05 15:12 6.36398 116.20190 18020 ft 387 kts 237°
2026-05-05 15:12 6.35003 116.17932 17491 ft 385 kts 237°
2026-05-05 15:13 6.33594 116.15650 16991 ft 381 kts 237°
2026-05-05 15:13 6.32201 116.13396 16498 ft 378 kts 237°
2026-05-05 15:13 6.30821 116.11163 16009 ft 375 kts 237°
2026-05-05 15:13 6.29435 116.08957 15501 ft 372 kts 235°
2026-05-05 15:14 6.27700 116.07061 15001 ft 367 kts 216°
2026-05-05 15:14 6.25489 116.05838 14532 ft 361 kts 202°
2026-05-05 15:14 6.23179 116.04861 14051 ft 358 kts 201°
2026-05-05 15:14 6.20878 116.03908 13553 ft 356 kts 201°
2026-05-05 15:15 6.18601 116.02958 13005 ft 353 kts 201°
2026-05-05 15:15 6.16340 116.02007 12462 ft 351 kts 201°
2026-05-05 15:15 6.14121 116.01070 11944 ft 348 kts 201°
2026-05-05 15:15 6.11895 116.00127 11424 ft 346 kts 202°
2026-05-05 15:16 6.09686 115.99192 10912 ft 343 kts 202°
2026-05-05 15:16 6.07489 115.98260 10408 ft 341 kts 202°
2026-05-05 15:16 6.05309 115.97335 9890 ft 339 kts 202°
2026-05-05 15:16 6.03158 115.96423 9532 ft 331 kts 202°
2026-05-05 15:17 6.01079 115.95539 9336 ft 318 kts 202°
2026-05-05 15:17 5.99083 115.94691 9155 ft 305 kts 202°
2026-05-05 15:17 5.97148 115.93870 8874 ft 298 kts 202°
2026-05-05 15:17 5.95251 115.93065 8492 ft 294 kts 201°
2026-05-05 15:18 5.93374 115.92270 8123 ft 292 kts 201°
2026-05-05 15:18 5.91506 115.91477 7733 ft 289 kts 201°
2026-05-05 15:18 5.89684 115.90705 7366 ft 287 kts 201°
2026-05-05 15:18 5.87853 115.89928 7043 ft 283 kts 201°
2026-05-05 15:19 5.86073 115.89172 6890 ft 272 kts 201°
2026-05-05 15:19 5.84365 115.88448 6711 ft 263 kts 201°
2026-05-05 15:19 5.82680 115.87733 6278 ft 266 kts 201°
2026-05-05 15:19 5.80941 115.86998 5672 ft 274 kts 201°
2026-05-05 15:20 5.79180 115.86254 5229 ft 275 kts 201°
2026-05-05 15:20 5.77362 115.85718 4766 ft 269 kts 182°
2026-05-05 15:20 5.75577 115.86110 4244 ft 265 kts 149°
2026-05-05 15:20 5.74340 115.87387 3719 ft 253 kts 116°
2026-05-05 15:21 5.73738 115.89005 3255 ft 242 kts 107°
2026-05-05 15:21 5.73242 115.90555 3042 ft 222 kts 109°
2026-05-05 15:21 5.72918 115.91500 3019 ft 210 kts 109°
2026-05-05 15:21 5.72440 115.92825 3025 ft 194 kts 110°
2026-05-05 15:22 5.72087 115.94107 3014 ft 191 kts 97°
2026-05-05 15:22 5.72386 115.95381 3003 ft 193 kts 54°
2026-05-05 15:22 5.73323 115.96336 2993 ft 193 kts 37°
2026-05-05 15:22 5.74505 115.96965 3003 ft 193 kts 22°
2026-05-05 15:23 5.75750 115.97478 3002 ft 193 kts 23°
2026-05-05 15:23 5.76988 115.98004 2981 ft 194 kts 23°
2026-05-05 15:23 5.78197 115.98530 2795 ft 183 kts 24°
2026-05-05 15:23 5.79315 115.99018 2563 ft 168 kts 23°
2026-05-05 15:24 5.80359 115.99459 2344 ft 157 kts 23°
2026-05-05 15:24 5.81331 115.99870 2139 ft 146 kts 23°
2026-05-05 15:24 5.82227 116.00251 1961 ft 138 kts 23°
2026-05-05 15:24 5.83110 116.00625 1798 ft 137 kts 23°
2026-05-05 15:25 5.83992 116.00999 1644 ft 138 kts 23°
2026-05-05 15:25 5.84876 116.01374 1477 ft 138 kts 24°
2026-05-05 15:25 5.85761 116.01750 1307 ft 138 kts 24°
2026-05-05 15:25 5.86644 116.02124 1140 ft 138 kts 24°
2026-05-05 15:26 5.87525 116.02498 956 ft 137 kts 24°
2026-05-05 15:26 5.88405 116.02871 775 ft 137 kts 24°
2026-05-05 15:26 5.89277 116.03241 592 ft 136 kts 24°
2026-05-05 15:26 5.90147 116.03608 402 ft 135 kts 23°
2026-05-05 15:27 5.91019 116.03964 225 ft 135 kts 23°
2026-05-05 15:27 5.91879 116.04339 53 ft 135 kts 20°
2026-05-05 15:27 5.92686 116.04683 27 ft 111 kts 24°
2026-05-05 15:27 5.93296 116.04941 28 ft 81 kts 23°
2026-05-05 15:28 5.93600 116.05070 30 ft 30 kts 23°
2026-05-05 15:28 5.93672 116.05219 28 ft 27 kts 128°
2026-05-05 15:28 5.93514 116.05219 28 ft 20 kts 202°
2026-05-05 15:28 5.93381 116.05162 28 ft 22 kts 203°
2026-05-05 15:29 5.93231 116.05098 28 ft 25 kts 202°
2026-05-05 15:29 5.93076 116.05034 28 ft 21 kts 202°
2026-05-05 15:29 5.92970 116.04990 28 ft 18 kts 203°
2026-05-05 15:29 5.92859 116.04986 28 ft 15 kts 134°
2026-05-05 15:30 5.92779 116.05030 28 ft 14 kts 193°
2026-05-05 15:30 5.92678 116.04987 28 ft 16 kts 203°
2026-05-05 15:30 5.92625 116.04984 27 ft 3 kts 136°
2026-05-05 15:30 5.92610 116.05013 28 ft 6 kts 114°
2026-05-05 15:31 5.92606 116.05023 28 ft 0 kts 113°